Hourly Data Report for May 14, 2017

TORONTO CITY
ONTARIO

43°40'00.000" N
79°24'00.000" W
112.50 m
6158355
71508
XTO

Download Data

Hourly Data (May 2017)
Hourly Data Report for May 14, 2017
TIME
LST
Temp Definition
°C
Dew Point Definition
°C
Rel Hum Definition
%
Precip. Amount Definition
mm

Wind Dir Definition
10's deg

Wind Spd Definition
km/h
Visibility Definition
km
Stn Press Definition
kPa
Hmdx Definition


Wind Chill Definition


Weather Definition


00:00 10.0 7.1 83 0.0 LegendMM LegendMM   99.45     LegendNANA
01:00 9.4 7.0 85 0.0 LegendMM LegendMM   99.42     LegendNANA
02:00 9.4 7.1 86 0.0 LegendMM LegendMM   99.37     LegendNANA
03:00 8.6 6.8 89 0.0 LegendMM LegendMM   99.35     LegendNANA
04:00 8.0 6.4 89 0.0 LegendMM LegendMM   99.31     LegendNANA
05:00 7.4 6.0 90 0.0 LegendMM LegendMM   99.33     LegendNANA
06:00 7.9 6.4 90 0.0 LegendMM LegendMM   99.35     LegendNANA
07:00 10.6 7.3 80 0.0 LegendMM LegendMM   99.36     LegendNANA
08:00 13.6 6.9 64 0.0 LegendMM LegendMM   99.32     LegendNANA
09:00 14.9 7.7 62 0.0 LegendMM LegendMM   99.29     LegendNANA
10:00 15.9 7.7 58 0.0 LegendMM LegendMM   99.27     LegendNANA
11:00 18.0 4.6 41 0.0 LegendMM LegendMM   99.21     LegendNANA
12:00 17.4 0.9 33 0.0 LegendMM LegendMM   99.17     LegendNANA
13:00 13.9 7.0 63 0.0 LegendMM LegendMM   99.22     LegendNANA
14:00 15.5 5.3 50 0.0 LegendMM LegendMM   99.27     LegendNANA
15:00 15.6 4.0 46 0.0 LegendMM LegendMM   99.33     LegendNANA
16:00 13.9 2.6 46 0.0 LegendMM LegendMM   99.42     LegendNANA
17:00 13.0 3.3 52 0.0 LegendMM LegendMM   99.50     LegendNANA
18:00 12.8 4.1 56 0.0 LegendMM LegendMM   99.59     LegendNANA
19:00 11.9 4.4 60 0.0 LegendMM LegendMM   99.67     LegendNANA
20:00 11.4 4.5 63 0.0 LegendMM LegendMM   99.74     LegendNANA
21:00 11.2 4.1 62 0.0 LegendMM LegendMM   99.82     LegendNANA
22:00 11.4 3.7 59 0.0 LegendMM LegendMM   99.86     LegendNANA
23:00 11.4 3.8 60 0.0 LegendMM LegendMM   99.90     LegendNANA

Notes on Data Quality.

Legend

  • E = Estimated
  • M = Missing
  • NA = Not Available*
  • [empty] = Indicates an unobserved value
Date modified: